When you browse on this site, cookies collect data to enhance your experience and personalize the content and advertising you see.
Visit our Privacy Policy to learn more. By continuing to use the site, you agree to this use of cookies and data.
  • In United Kingdom
  • List of Countries
  • For 7 days
  • Water Temperature
  • Weather Map
  • Weather Widgets
  • user-avatar
    Login

    Hourly Weather Bonn

    Today, 20 October, Sunday

    Time Temperature Precipitation Wind Pressure Humidity
    00:00 +12°C° 0 mm 0 mps 749 mmHg 92%
    01:00 +12°C° 0.6 mm 0 mps 749 mmHg 93%
    02:00 +12°C° 0.6 mm 0 mps 749 mmHg 93%
    03:00 +12°C° 0.6 mm 0 mps 749 mmHg 94%
    04:00 +12°C° 0.6 mm 0 mps 749 mmHg 94%
    05:00 +12°C° 0.6 mm 0 mps 749 mmHg 94%
    06:00 +12°C° 0.6 mm 0 mps 750 mmHg 95%
    07:00 +12°C° 0.4 mm 0 mps 750 mmHg 94%
    08:00 +14°C° 0.4 mm 1 mps 750 mmHg 93%
    09:00 +14°C° 0.4 mm 1 mps 750 mmHg 93%
    10:00 +14°C° 1.1 mm 1 mps 750 mmHg 93%
    11:00 +15°C° 1.1 mm 1 mps 750 mmHg 94%
    12:00 +15°C° 1.1 mm 1 mps 750 mmHg 95%
    13:00 +15°C° 0.9 mm 1 mps 750 mmHg 94%
    14:00 +16°C° 0.9 mm 2 mps 749 mmHg 94%
    15:00 +16°C° 0.9 mm 2 mps 749 mmHg 93%
    16:00 +16°C° 1 mm 2 mps 749 mmHg 93%
    17:00 +16°C° 1 mm 1 mps 749 mmHg 94%
    18:00 +16°C° 1 mm 1 mps 750 mmHg 94%
    19:00 +15°C° 1.1 mm 1 mps 750 mmHg 95%
    20:00 +15°C° 1.1 mm 1 mps 750 mmHg 95%
    21:00 +15°C° 1.1 mm 1 mps 750 mmHg 95%
    22:00 +15°C° 0.1 mm 1 mps 750 mmHg 95%
    23:00 +15°C° 0.1 mm 1 mps 750 mmHg 95%

    Tomorrow, 21 October, Monday

    Time Temperature Precipitation Wind Pressure Humidity
    00:00 +15°C° 0.1 mm 1 mps 750 mmHg 94%
    01:00 +15°C° 0 mm 2 mps 750 mmHg 94%
    02:00 +15°C° 0 mm 2 mps 750 mmHg 93%
    03:00 +14°C° 0 mm 3 mps 751 mmHg 93%
    04:00 +14°C° 0 mm 3 mps 751 mmHg 91%
    05:00 +14°C° 0 mm 4 mps 752 mmHg 90%
    06:00 +14°C° 0 mm 4 mps 753 mmHg 88%
    07:00 +14°C° 0 mm 4 mps 753 mmHg 84%
    08:00 +14°C° 0 mm 4 mps 754 mmHg 80%
    09:00 +14°C° 0 mm 4 mps 755 mmHg 77%
    10:00 +15°C° 0 mm 5 mps 755 mmHg 72%
    11:00 +15°C° 0 mm 5 mps 756 mmHg 68%
    12:00 +16°C° 0 mm 6 mps 756 mmHg 63%
    13:00 +15°C° 0 mm 5 mps 757 mmHg 66%
    14:00 +14°C° 0 mm 5 mps 757 mmHg 68%
    15:00 +14°C° 0 mm 5 mps 757 mmHg 71%
    16:00 +13°C° 0 mm 4 mps 757 mmHg 73%
    17:00 +13°C° 0 mm 4 mps 758 mmHg 75%
    18:00 +12°C° 0 mm 4 mps 758 mmHg 76%
    19:00 +12°C° 0 mm 3 mps 758 mmHg 78%
    20:00 +12°C° 0 mm 3 mps 759 mmHg 80%
    21:00 +12°C° 0 mm 3 mps 759 mmHg 82%
    22:00 +11°C° 0 mm 3 mps 760 mmHg 84%
    23:00 +12°C° 0 mm 2 mps 760 mmHg 86%

    Day after tomorrow, 22 October, Tuesday

    Time Temperature Precipitation Wind Pressure Humidity
    00:00 +12°C° 0 mm 2 mps 761 mmHg 88%
    01:00 +10°C° 0 mm 2 mps 761 mmHg 89%
    02:00 +10°C° 0 mm 2 mps 761 mmHg 90%
    03:00 +11°C° 0 mm 1 mps 761 mmHg 91%
    04:00 +10°C° 0 mm 1 mps 761 mmHg 92%
    05:00 +10°C° 0 mm 1 mps 761 mmHg 92%
    06:00 +10°C° 0 mm 1 mps 762 mmHg 92%
    07:00 +11°C° 0 mm 1 mps 762 mmHg 87%
    08:00 +11°C° 0 mm 0 mps 762 mmHg 81%
    09:00 +13°C° 0 mm 0 mps 762 mmHg 75%
    10:00 +14°C° 0 mm 0 mps 762 mmHg 71%
    11:00 +16°C° 0 mm 1 mps 762 mmHg 67%
    12:00 +16°C° 0 mm 1 mps 762 mmHg 62%
    13:00 +16°C° 0 mm 1 mps 762 mmHg 64%
    14:00 +16°C° 0 mm 1 mps 761 mmHg 66%
    15:00 +16°C° 0 mm 1 mps 761 mmHg 68%
    16:00 +14°C° 0 mm 1 mps 761 mmHg 73%
    17:00 +13°C° 0 mm 1 mps 761 mmHg 79%
    18:00 +11°C° 0 mm 1 mps 761 mmHg 84%
    19:00 +11°C° 0 mm 1 mps 761 mmHg 85%
    20:00 +11°C° 0 mm 1 mps 761 mmHg 86%
    21:00 +10°C° 0 mm 1 mps 760 mmHg 87%
    22:00 +10°C° 0 mm 1 mps 760 mmHg 87%
    23:00 +10°C° 0 mm 1 mps 760 mmHg 88%

    23 October, Wednesday

    Time Temperature Precipitation Wind Pressure Humidity
    00:00 +10°C° 0 mm 1 mps 760 mmHg 88%
    01:00 +10°C° 0 mm 1 mps 759 mmHg 88%
    02:00 +10°C° 0 mm 1 mps 759 mmHg 88%
    03:00 +10°C° 0 mm 1 mps 758 mmHg 88%
    04:00 +10°C° 0 mm 1 mps 758 mmHg 88%
    05:00 +10°C° 0 mm 1 mps 758 mmHg 89%
    06:00 +10°C° 0 mm 1 mps 757 mmHg 89%
    07:00 +12°C° 0 mm 2 mps 757 mmHg 83%
    08:00 +13°C° 0 mm 2 mps 757 mmHg 78%
    09:00 +14°C° 0 mm 3 mps 756 mmHg 72%
    10:00 +17°C° 0 mm 3 mps 756 mmHg 70%
    11:00 +18°C° 0 mm 3 mps 755 mmHg 67%
    12:00 +19°C° 0 mm 3 mps 755 mmHg 64%
    13:00 +19°C° 0 mm 3 mps 754 mmHg 67%
    14:00 +19°C° 0 mm 3 mps 753 mmHg 69%
    15:00 +19°C° 0 mm 2 mps 753 mmHg 71%
    16:00 +18°C° 0 mm 2 mps 753 mmHg 76%
    17:00 +16°C° 0 mm 2 mps 752 mmHg 82%
    18:00 +14°C° 0 mm 3 mps 752 mmHg 87%
    19:00 +14°C° 0 mm 2 mps 752 mmHg 88%
    20:00 +14°C° 0 mm 2 mps 751 mmHg 89%
    21:00 +14°C° 0 mm 2 mps 751 mmHg 90%
    22:00 +14°C° 0 mm 2 mps 751 mmHg 91%
    23:00 +13°C° 0 mm 2 mps 751 mmHg 92%

    24 October, Thursday

    Time Temperature Precipitation Wind Pressure Humidity
    00:00 +13°C° 0 mm 2 mps 750 mmHg 92%
    01:00 +13°C° 0 mm 2 mps 750 mmHg 93%
    02:00 +12°C° 0 mm 2 mps 750 mmHg 94%
    03:00 +12°C° 0 mm 1 mps 750 mmHg 94%
    04:00 +12°C° 0 mm 2 mps 750 mmHg 94%
    05:00 +10°C° 0 mm 2 mps 750 mmHg 94%
    06:00 +10°C° 0 mm 2 mps 750 mmHg 95%
    07:00 +13°C° 0 mm 2 mps 750 mmHg 91%
    08:00 +14°C° 0 mm 2 mps 750 mmHg 87%
    09:00 +15°C° 0 mm 2 mps 750 mmHg 84%
    10:00 +16°C° 0 mm 2 mps 750 mmHg 78%
    11:00 +18°C° 0 mm 2 mps 750 mmHg 73%
    12:00 +20°C° 0 mm 1 mps 750 mmHg 68%
    13:00 +20°C° 0 mm 1 mps 750 mmHg 70%
    14:00 +20°C° 0 mm 1 mps 750 mmHg 73%
    15:00 +20°C° 0 mm 1 mps 750 mmHg 76%
    16:00 +19°C° 0 mm 1 mps 751 mmHg 80%
    17:00 +18°C° 0 mm 1 mps 751 mmHg 85%
    18:00 +15°C° 0 mm 1 mps 751 mmHg 90%
    19:00 +15°C° 0 mm 1 mps 752 mmHg 90%
    20:00 +15°C° 0 mm 1 mps 752 mmHg 91%
    21:00 +14°C° 0 mm 1 mps 752 mmHg 92%
    22:00 +14°C° 0 mm 1 mps 753 mmHg 92%
    23:00 +14°C° 0 mm 1 mps 753 mmHg 93%

    25 October, Friday

    Time Temperature Precipitation Wind Pressure Humidity
    00:00 +14°C° 0 mm 1 mps 753 mmHg 93%
    01:00 +13°C° 0 mm 1 mps 753 mmHg 94%
    02:00 +13°C° 0 mm 1 mps 753 mmHg 94%
    03:00 +13°C° 0 mm 1 mps 754 mmHg 95%
    04:00 +13°C° 0 mm 1 mps 754 mmHg 95%
    05:00 +12°C° 0 mm 0 mps 754 mmHg 96%
    06:00 +11°C° 0 mm 0 mps 754 mmHg 96%
    07:00 +12°C° 0 mm 0 mps 755 mmHg 93%
    08:00 +15°C° 0 mm 1 mps 755 mmHg 90%
    09:00 +16°C° 0 mm 1 mps 755 mmHg 86%
    10:00 +16°C° 0 mm 1 mps 755 mmHg 83%
    11:00 +16°C° 0 mm 0 mps 755 mmHg 79%
    12:00 +16°C° 0 mm 0 mps 756 mmHg 76%
    13:00 +16°C° 0 mm 0 mps 755 mmHg 77%
    14:00 +16°C° 0 mm 0 mps 755 mmHg 77%
    15:00 +16°C° 0 mm 0 mps 755 mmHg 78%
    16:00 +16°C° 0 mm 1 mps 755 mmHg 82%
    17:00 +15°C° 0 mm 1 mps 755 mmHg 86%
    18:00 +14°C° 0 mm 1 mps 755 mmHg 90%
    19:00 +13°C° 0 mm 1 mps 755 mmHg 91%
    20:00 +13°C° 0 mm 1 mps 755 mmHg 92%
    21:00 +13°C° 0 mm 1 mps 755 mmHg 92%
    22:00 +13°C° 0 mm 2 mps 755 mmHg 92%
    23:00 +13°C° 0 mm 2 mps 754 mmHg 93%
    Show more